Albany, NY

3:10 AM EDT on March 25, 2017 (GMT -0400)
Albany International

Weather History for KALB - September, 2012

Change the Weather History Date:

Wednesday, September 5, 2012

  Actual Average Record
Temperature  
Mean Temperature 69 °F 66 °F  
Max Temperature 77 °F 76 °F 91 °F (1973)
Min Temperature 61 °F 56 °F 37 °F (1963)
Degree Days  
Heating Degree Days 0 2  
Month to date heating degree days 0 9  
Since 1 July heating degree days 2 32  
Cooling Degree Days 4 3  
Month to date cooling degree days 28 17  
Year to date cooling degree days 782 560  
Growing Degree Days 20 (Base 50)    
Moisture  
Dew Point 66 °F    
Average Humidity 82    
Maximum Humidity 100    
Minimum Humidity 64    
Precipitation  
Precipitation 0.05 in 0.10 in 1.54 in (1953)
Month to date precipitation 0.13 0.50  
Year to date precipitation 23.09 26.65  
Sea Level Pressure  
Sea Level Pressure 29.78 in    
Wind  
Wind Speed 6 mph (WSW)    
Max Wind Speed 20 mph    
Max Gust Speed 24 mph    
Visibility 10 miles    
Events Fog , Rain    
T = Trace of Precipitation, MM = Missing Value Source: NWS Daily Summary

Daily Weather History Graph

Daily Weather History Graph

Search for Another Location

Airport or City:

Trip Planner

Search our weather history database for the weather conditions in past years. The results will help you decide how hot, cold, wet, or windy it might be!

Date:

Astronomy

Sep. 05, 2012 Rise Set
Actual Time 6:24 AM EDT 7:21 PM EDT
Civil Twilight 5:55 AM EDT 7:50 PM EDT
Nautical Twilight 5:21 AM EDT 8:24 PM EDT
Astronomical Twilight 4:45 AM EDT 9:00 PM EDT
Moon 9:41 PM EDT (9/5) 11:34 AM EDT (9/5)
Length of Visible Light 13h 54m
Length of Day
12h 57m
Waning Gibbous, 76% of the Moon is Illuminated
Sep 5
Waning Gibbous
Sep 8
Last Quarter
Sep 15
New
Sep 22
First Quarter
Sep 29
Full

Hourly Weather History & Observations

Time (EDT) Temp. Dew Point Humidity Pressure Visibility Wind Dir Wind Speed Gust Speed Precip Events Conditions
12:51 AM 73.0 °F 71.1 °F 93% 29.75 in 7.0 mi South 12.7 mph 24.2 mph 0.07 in Rain Light Rain
1:41 AM 73.4 °F 71.6 °F 94% 29.73 in 8.0 mi South 15.0 mph 21.9 mph 0.00 in Rain Light Rain
1:51 AM 73.0 °F 71.1 °F 93% 29.73 in 10.0 mi South 13.8 mph 19.6 mph 0.00 in Rain Light Rain
2:42 AM 73.4 °F 71.6 °F 94% 29.71 in 10.0 mi South 10.4 mph - 0.00 in   Overcast
2:51 AM 73.0 °F 72.0 °F 96% 29.70 in 10.0 mi South 9.2 mph - 0.00 in   Overcast
3:35 AM 73.4 °F 71.6 °F 94% 29.70 in 3.0 mi SSW 8.1 mph - 0.01 in Rain Rain
3:51 AM 73.0 °F 72.0 °F 96% 29.70 in 10.0 mi SSW 8.1 mph - 0.05 in   Overcast
3:58 AM 73.4 °F 71.6 °F 94% 29.71 in 10.0 mi SSW 8.1 mph - N/A   Overcast
4:14 AM 73.4 °F 71.6 °F 94% 29.71 in 10.0 mi South 8.1 mph - N/A   Overcast
4:51 AM 73.0 °F 71.1 °F 93% 29.72 in 10.0 mi WSW 11.5 mph 21.9 mph N/A   Overcast
5:21 AM 69.8 °F 66.2 °F 88% 29.73 in 10.0 mi West 16.1 mph 24.2 mph N/A   Overcast
5:51 AM 69.1 °F 64.9 °F 87% 29.74 in 10.0 mi West 17.3 mph 23.0 mph N/A   Mostly Cloudy
6:51 AM 68.0 °F 64.0 °F 87% 29.77 in 10.0 mi West 10.4 mph - N/A   Mostly Cloudy
7:51 AM 69.1 °F 63.0 °F 81% 29.79 in 10.0 mi West 12.7 mph 18.4 mph N/A   Mostly Cloudy
8:51 AM 71.1 °F 63.0 °F 75% 29.79 in 10.0 mi WNW 11.5 mph 21.9 mph N/A   Mostly Cloudy
9:51 AM 75.0 °F 64.0 °F 69% 29.81 in 10.0 mi NNW 10.4 mph - N/A   Mostly Cloudy
10:51 AM 75.9 °F 64.0 °F 67% 29.81 in 10.0 mi NW 8.1 mph - N/A   Mostly Cloudy
11:51 AM 75.0 °F 64.0 °F 69% 29.82 in 10.0 mi NNE 3.5 mph - N/A   Mostly Cloudy
12:51 PM 75.9 °F 64.9 °F 69% 29.81 in 10.0 mi NNE 4.6 mph - N/A   Mostly Cloudy
1:51 PM 75.0 °F 64.9 °F 71% 29.81 in 10.0 mi NE 4.6 mph - N/A   Mostly Cloudy
2:51 PM 75.0 °F 64.0 °F 69% 29.81 in 10.0 mi NE 8.1 mph - N/A   Overcast
3:51 PM 73.9 °F 64.0 °F 71% 29.82 in 10.0 mi NNE 6.9 mph - N/A   Overcast
4:51 PM 75.0 °F 63.0 °F 66% 29.82 in 10.0 mi NNE 3.5 mph - N/A   Mostly Cloudy
5:51 PM 75.0 °F 63.0 °F 66% 29.83 in 10.0 mi North 3.5 mph - N/A   Mostly Cloudy
6:51 PM 75.0 °F 64.0 °F 69% 29.84 in 10.0 mi Calm Calm - N/A   Scattered Clouds
7:51 PM 69.1 °F 64.0 °F 84% 29.84 in 10.0 mi Calm Calm - N/A   Partly Cloudy
8:51 PM 66.0 °F 63.0 °F 90% 29.86 in 10.0 mi Calm Calm - N/A   Clear
9:51 PM 64.9 °F 63.0 °F 93% 29.86 in 10.0 mi Calm Calm - N/A   Clear
10:51 PM 62.1 °F 61.0 °F 96% 29.86 in 7.0 mi Calm Calm - N/A   Clear
11:51 PM 63.0 °F 62.1 °F 97% 29.84 in 10.0 mi Calm Calm - N/A Fog Shallow Fog